Regional Weather Roundup
Issued by NWS

Home | Current Version | Previous Version | Text Only | Print | Product List | Glossary Off
Versions: 1 2 3 4 5 6 7 8 9 10 11 12 13 14 15 16 17 18 19 20 21 22 23 24 25 26 27 28 29 30 31 32 33 34 35 36 37 38 39 40 41 42 43 44 45 46 47 48 49 50

000
ASUS43 KBIS 290702
RWRND

NORTH DAKOTA REGIONAL WEATHER ROUNDUP
NATIONAL WEATHER SERVICE BISMARCK ND
200 AM CDT FRI APR 29 2016

NOTE: "FAIR" INDICATES FEW OR NO CLOUDS BELOW 12,000 FEET WITH NO
SIGNIFICANT WEATHER AND/OR OBSTRUCTIONS TO VISIBILITY.


NDZ001>003-009>011-017-290800-
NORTHWEST NORTH DAKOTA

CITY           SKY/WX    TMP DP  RH WIND       PRES   REMARKS
WILLISTON      PTCLDY    40  28  62 NE6       30.17S
MINOT          PTCLDY    43  19  38 NE7       30.19S
MINOT AFB      PTCLDY    40  20  45 E7        30.19S
$$

NDZ018>021-031>035-040>046-290800-
SOUTHWEST NORTH DAKOTA

CITY           SKY/WX    TMP DP  RH WIND       PRES   REMARKS
BISMARCK       PTCLDY    39  32  76 NE7       30.16S
DICKINSON      MOCLDY    39  26  59 E3        30.12S
GARRISON         N/A     34  23  64 NE5       30.17S
HETTINGER ARPT CLOUDY    37  35  92 NW5       30.14S
$$

NDZ004>008-012>016-024-026-027-054-290800-
NORTHEAST NORTH DAKOTA

CITY           SKY/WX    TMP DP  RH WIND       PRES   REMARKS
GRAND FORKS    CLOUDY    35  27  72 N6        30.17S
GRND FRKS AFB  CLOUDY    32  27  80 N5        30.17S
DEVILS LAKE    CLOUDY    40  23  50 N3        30.19S
$$

NDZ022-023-025-028>030-036>039-047>053-290800-
SOUTHEAST NORTH DAKOTA

CITY           SKY/WX    TMP DP  RH WIND       PRES   REMARKS
FARGO          CLOUDY    38  28  67 N6        30.14R
JAMESTOWN      CLOUDY    39  27  62 NE8       30.13F
$$




USA.gov is the U.S. government's official web portal to all federal, state and local government web resources and services.